Regional Weather Roundup
Issued by NWS Cleveland, OH

Home | Current Version | Previous Version | Graphics & Text | Print | Product List | Glossary On
Versions: 1 2 3 4 5 6 7 8 9 10 11 12 13 14 15 16 17 18 19 20 21 22 23 24 25 26 27 28 29 30 31 32 33 34 35 36 37 38 39 40 41 42 43 44 45 46 47 48 49 50
000
ASUS41 KCLE 141600
RWRCLE
OHIO REGIONAL WEATHER ROUNDUP
NATIONAL WEATHER SERVICE WILMINGTON, OH
1100 AM EST SUN FEB 14 2016

NOTE: "FAIR" INDICATES FEW OR NO CLOUDS BELOW 12,000 FEET WITH NO
SIGNIFICANT WEATHER AND/OR OBSTRUCTIONS TO VISIBILITY.

OHZ001>008-015>018-024>027-034-035-043-044-141700-
   NORTHWEST OHIO

CITY           SKY/WX    TMP DP  RH WIND       PRES   REMARKS
DEFIANCE       FAIR      17   3  54 SE8       30.42F WCI   7
FINDLAY        FAIR      16   5  62 SE10      30.42F WCI   4
TOLEDO EXPRESS FAIR      15   4  61 SE7       30.43F WCI   5
TOLEDO EXEC    FAIR      16   3  56 SE13      30.46F WCI   2
LIMA           FAIR      16   6  65 SE15      30.39F WCI   1
$$

OHZ009>014-019>023-028>033-038-089-141700-
   NORTHEAST OHIO

CITY           SKY/WX    TMP DP  RH WIND       PRES   REMARKS
CLE-HOPKINS    CLOUDY    13   2  61 SW7       30.50S WCI   3
CLE-LAKEFRONT  CLOUDY    16   2  54 S10       30.48S WCI   4
CUY CO. ARPT   PTSUNNY   16   1  53 S7        30.46S WCI   6
LORAIN-ELYRIA  FAIR      10   2  69 S8        30.47F WCI  -2
ASHTABULA      CLOUDY    11   2  67 S5        30.46S WCI   3
AKRON-CANTON   FAIR      10   3  73 VRB5      30.44S WCI   2
WOOSTER        NOT AVBL
MANSFIELD      FAIR      11   1  64 SE12      30.41F WCI  -3
YOUNGSTOWN     PTSUNNY   10   5  80 CALM      30.45R
$$

OHZ042-051>053-060>062-070>072-077>081-141700-
  SOUTHWEST OHIO

CITY           SKY/WX    TMP DP  RH WIND       PRES   REMARKS
CINC-COVINGTON CLOUDY    18   5  57 SE15      30.37F WCI   4
CINC-LUNKEN    CLOUDY    19   5  54 SE8       30.42F WCI   9
HAMILTON       PTSUNNY   20   4  50 SE7       30.40F WCI  11
DAYTON         NOT AVBL
WRIGHT-PAT AFB NOT AVBL
DAYTON GENERAL CLOUDY    15   2  56 SE13      30.37F WCI   1
WILMINGTON     PTSUNNY   13   2  61 SE9       30.39F WCI   1
$$

OHZ036-037-039>041-045>050-054>059-063>069-073>076-082>088-141700-
  CENTRAL AND SOUTHEAST OHIO

CITY           SKY/WX    TMP DP  RH WIND       PRES   REMARKS
COLUMBUS       FAIR      13   3  64 SE10      30.45F WCI   0
OSU AIRPORT    FAIR      14   4  64 SE10      30.43F WCI   1
BOLTON FIELD   NOT AVBL
RICKENBACK AFB NOT AVBL
NEWARK         FAIR      15   3  59 SE12      30.45F WCI   2
MARION         FAIR      15   6  67 S12       30.43F WCI   2
LANCASTER      FAIR      13   4  67 SE9       30.45F WCI   1
ZANESVILLE     FAIR      15   2  56 SE9       30.47F WCI   3
NEW PHILLY     FAIR      13  32 100 S7        30.48F WCI   3
$$



USA.gov is the U.S. government's official web portal to all federal, state and local government web resources and services.